Home   Weather   Everett   Past weeks

Flag for USA Past Weather in Everett, Washington, USA — Yesterday and Last 2 Weeks

Now
50 °F

Mostly cloudy.


Feels Like: 48 °F
Forecast: 44 / 54 °F
Wind: 5 mph from Northwest

Location: Snohomish County Airport

Current Time: Apr 30, 2017 at 7:38:04 pm

Latest Report: Apr 30, 2017 at 7:18 pm


Visibility: 10 mi

Pressure: 30.32 "Hg

Humidity: 71%

Dew Point: 41 °F

Location of EverettLocation

Past Weather in Everett — Graph

°F

Everett Temperature Yesterday

Maximum temperature yesterday: 53 °F (at 1:53 pm)
Minimum temperature yesterday: 43 °F (at 4:53 am)
Average temperature yesterday: 48 °F

High & Low Weather Summary for the Past Weeks

 TemperatureHumidityPressure
High62 °F (Apr 21, 3:53 pm)100% (Apr 30, 4:22 am)30.42 "Hg (Apr 30, 4:22 am)
Low39 °F (Apr 16, 5:53 am)32% (Apr 22, 2:53 am)29.72 "Hg (Apr 24, 10:53 am)
Average50 °F77%30.02 "Hg
* Reported Apr 15 5:53 pm — Apr 30 5:53 pm, Everett, Weather by CustomWeather, © 2017

Note: Actual official high and low records may vary slightly from our data, if they occured in-between our weather recording intervals... More about our weather records

Advertising

Everett Weather History for the Previous 24 Hours

Scroll right to see more
 ConditionsComfort  
Time TempWeatherWind HumidityBarometerVisibility
5:53 pm
Sun, Apr 30
53 °FPartly sunny.7 mph64%30.32 "Hg10 mi
4:53 pm52 °FOvercast.6 mph66%30.32 "Hg10 mi
3:53 pm53 °FOvercast.7 mph64%30.31 "Hg10 mi
2:53 pm54 °FMostly cloudy.9 mph62%30.31 "Hg10 mi
1:53 pm51 °FOvercast.6 mph63%30.30 "Hg10 mi
12:53 pm52 °FMostly cloudy.7 mph64%30.29 "Hg10 mi
11:53 am50 °FPartly sunny.9 mph68%30.29 "Hg10 mi
10:53 am50 °FPartly sunny.8 mph71%30.27 "Hg10 mi
10:20 am49 °FMostly cloudy.8 mph71%30.25 "Hg10 mi
9:53 am48 °FBroken clouds.6 mph71%30.25 "Hg10 mi
8:56 am47 °FOvercast.5 mph77%30.23 "Hg10 mi
7:53 am46 °FLight rain. Overcast.5 mph79%30.22 "Hg8 mi
7:11 am46 °FMostly cloudy.No wind83%30.20 "Hg10 mi
6:53 am45 °FBroken clouds.5 mph90%30.19 "Hg10 mi
6:19 am45 °FCloudy.3 mph90%30.18 "Hg10 mi
5:53 am45 °FOvercast.6 mph93%30.17 "Hg10 mi
5:23 am46 °FMostly cloudy.5 mph89%30.16 "Hg10 mi
4:53 am46 °FLow clouds.5 mph93%30.17 "Hg10 mi
4:22 am46 °FFog.No wind100%30.16 "Hg3 mi
4:06 am46 °FFog.3 mph96%30.15 "Hg4 mi
3:15 am47 °FFog.6 mph97%30.14 "Hg6 mi
2:53 am47 °FMostly cloudy.9 mph93%30.14 "Hg10 mi
2:33 am47 °FMostly cloudy.9 mph93%30.12 "Hg10 mi
1:53 am47 °FLow clouds.12 mph93%30.12 "Hg10 mi
12:53 am48 °FLow clouds.16 mph93%30.09 "Hg10 mi
11:53 pm
Sat, Apr 29
48 °FLow clouds.20 mph93%30.08 "Hg10 mi
11:22 pm48 °FMostly cloudy.17 mph89%30.07 "Hg10 mi
10:53 pm48 °FMostly cloudy.17 mph93%30.09 "Hg10 mi
10:08 pm47 °FLow clouds.15 mph93%30.08 "Hg10 mi
9:53 pm47 °FMostly cloudy.13 mph93%30.09 "Hg10 mi
8:53 pm46 °FMostly cloudy.14 mph93%30.10 "Hg10 mi
8:36 pm47 °FLight rain. Overcast.13 mph86%30.09 "Hg10 mi
7:53 pm48 °FOvercast.16 mph83%30.10 "Hg10 mi
Weather by CustomWeather, © 2017

See weather overviewHow to use our weather pages